This demonstration page uses our WeatherBlox Daily Observations layout. Learn more.

Left ArrowRight Arrow

Hourly Observations for September 22, 2021

Temp ( °F °C ) Dew Point ( °F °C ) Humidity (%) Winds ( mph kmh ) Pressure ( in mb ) Visibility ( mi km ) Precip ( " mm )
12:53 am 00:53 Clear 49 9.4 42 5.6 77 77 Calm 30.40 1030 10 16 0.00 0.00
1:53 am 01:53 Clear 47 8.3 41 5 80 80 Calm 30.40 1029 10 16 0.00 0.00
2:53 am 02:53 Hazy 48 8.9 41 5 77 77 Calm 30.40 1029 6 10 0.00 0.00
3:53 am 03:53 Clear 45 7.2 40 4.4 83 83 Calm 30.38 1029 7 11 0.00 0.00
4:53 am 04:53 Clear 45 7.2 41 5 86 86 W 5 7 30.38 1029 10 16 0.00 0.00
5:53 am 05:53 Clear 44 6.7 39 3.9 83 83 Calm 30.39 1029 10 16 0.00 0.00
6:53 am 06:53 Clear 44 6.7 40 4.4 85 85 Calm 30.38 1029 10 16 0.00 0.00
7:53 am 07:53 Sunny with Mist and Fog 45 7.2 41 5 86 86 Calm 30.39 1029 6 10 0.00 0.00
8:53 am 08:53 Sunny 53 11.7 45 7.2 74 74 Calm 30.38 1029 10 16 0.00 0.00
9:53 am 09:53 Sunny 61 16.1 44 6.7 54 54 SSW 6 9 30.38 1029 10 16 0.00 0.00
10:53 am 10:53 Sunny 66 18.9 43 6.1 43 43 VRB 7 11 30.36 1028 10 16 0.00 0.00
11:53 am 11:53 Sunny 69 20.6 42 5.6 38 38 S 8 13 30.34 1028 10 16 0.00 0.00
12:53 pm 12:53 Sunny 72 22.2 41 5 33 33 SW 5 7 30.30 1026 10 16 0.00 0.00
1:53 pm 13:53 Sunny 74 23.3 39 3.9 28 28 SW 6 9 30.27 1025 10 16 0.00 0.00
2:53 pm 14:53 Sunny 75 23.9 40 4.4 28 28 undefined N/A 30.23 1024 10 16 0.00 0.00
3:53 pm 15:53 Sunny 76 24.4 38 3.3 25 25 S 8 13 30.20 1023 10 16 0.00 0.00
4:53 pm 16:53 Sunny 75 23.9 37 2.8 25 25 SSE 7 11 30.18 1022 10 16 0.00 0.00
5:53 pm 17:53 Sunny 75 23.9 38 3.3 26 26 S 8 13 30.16 1021 10 16 0.00 0.00
6:53 pm 18:53 Sunny 72 22.2 39 3.9 30 30 S 7 11 30.14 1021 10 16 0.00 0.00
7:53 pm 19:53 Clear 69 20.6 39 3.9 33 33 SSE 7 11 30.13 1020 10 16 0.00 0.00
8:53 pm 20:53 Clear 66 18.9 40 4.4 39 39 SSE 8 13 30.13 1020 10 16 0.00 0.00
9:53 pm 21:53 Clear 64 17.8 41 5 43 43 SSE 9 15 30.12 1020 10 16 0.00 0.00
10:53 pm 22:53 Clear 60 15.6 41 5 50 50 SSE 10 17 30.11 1020 10 16 0.00 0.00
11:53 pm 23:53 Clear 58 14.4 41 5 53 53 SSE 10 17 30.11 1020 10 16 0.00 0.00

Powered by AerisWeather